Location: Madingley
(52.2167°N, 0.0500°E)
Time: 08:37:21
(UTC+00:00)

SAR-Lupe-2 - Pass Details

Date: 15 May 2026
Orbit: 415 x 427 km, 98.1° (Epoch: 6 June)

Event Time Altitude Azimuth Distance (km) Brightness Sun altitude
Exits shadow 21:50:19 - 86° (E) 1,877 6.3 -13.7°
Enters shadow 22:47:29 -71° 166° (SSE) 12,460 10.7 -17.2°
Maximum altitude 23:24:00 79° 74° (ENE) 453 3.3 -18.4°
